Flag for Lebanon Weather past 2 weeks in Sidon, Lebanon

Now
86 °F

Passing clouds.


Feels Like: 93 °F
Forecast: 76 / 87 °F
Wind: 13 mph from Southwest

Location: Beirut Airport

Current Time: Jul 29, 2014 at 2:19:56 PM

Latest Report: Jul 29, 2014 at 1:00 PM


Visibility: 5 mi

Pressure: 29.83 "Hg

Humidity: 66%

Dew point: 73 °F

Location of SidonLocation

Historic Weather in Sidon — Graph

°F

Sidon temperature yesterday

Maximum temperature yesterday: 86 °F (at 1:00 PM)
Minimum temperature yesterday: 77 °F (at 5:00 AM)
Average temperature yesterday: 82 °F

Past Weeks' High & Low Weather Summary

 TemperatureHumidityPressure
High86 °F (Jul 14, 5:00 PM)84% (Jul 23, 11:00 PM)29.92 "Hg (Jul 23, 11:00 PM)
Low75 °F (Jul 18, 6:00 AM)48% (Jul 26, 8:00 AM)29.71 "Hg (Jul 21, 4:00 AM)
Average81 °F65%29.81 "Hg
* Reported Jul 14 1:00 PM — Jul 29 1:00 PM, Sidon, Weather by CustomWeather, © 2014

Note: Actual official high and low records may vary slightly from our data, if they occured in-between our weather recording intervals... More about our weather records

Advertising

Sidon weather history for previous 24 hours

 ConditionsComfort  
Time TempWeatherWind HumidityBarometerVisibility
1:00 PM
Jul 29
86 °FPassing clouds.13 mph66%29.83 "Hg5 mi
12:00 PM84 °FPassing clouds.13 mph70%29.83 "Hg4 mi
11:00 AM86 °FScattered clouds.13 mph66%29.83 "Hg5 mi
10:00 AM84 °FScattered clouds.12 mph66%29.83 "Hg5 mi
9:00 AM82 °FScattered clouds.9 mph70%29.83 "Hg4 mi
8:00 AM81 °FPassing clouds.9 mph74%29.83 "Hg5 mi
7:00 AM77 °FPartly sunny.3 mph79%29.83 "Hg5 mi
6:00 AM79 °FPassing clouds.5 mph79%29.83 "Hg5 mi
5:00 AM79 °FPassing clouds.5 mph74%29.83 "Hg5 mi
4:00 AM79 °FPassing clouds.6 mph79%29.83 "Hg5 mi
3:00 AM79 °FPassing clouds.7 mph84%29.83 "Hg5 mi
2:00 AM79 °FPassing clouds.5 mph79%29.83 "Hg5 mi
1:00 AM81 °FPassing clouds.6 mph79%29.86 "Hg5 mi
11:00 PM
Jul 28
81 °FPassing clouds.5 mph79%29.86 "Hg4 mi
10:00 PM81 °FPassing clouds.6 mph79%29.86 "Hg4 mi
9:00 PM81 °FPassing clouds.6 mph79%29.86 "Hg4 mi
8:00 PM81 °FPartly sunny.5 mph79%29.86 "Hg4 mi
7:00 PM82 °FScattered clouds.6 mph70%29.86 "HgN/A
6:00 PM84 °FScattered clouds.7 mph70%29.89 "HgN/A
5:00 PM84 °FScattered clouds.8 mph66%29.89 "HgN/A
4:00 PM84 °FPartly sunny.8 mph66%29.89 "HgN/A
3:00 PM86 °FPartly sunny.8 mph66%29.89 "HgN/A
2:00 PM84 °FPassing clouds.9 mph66%29.92 "Hg5 mi
Weather by CustomWeather, © 2014

See weather overviewHow to use our weather pages